This is the latest recevied weather packets stored in our database for station/object KJ5JYX. If no packets are shown the sender has not sent any weather packets the latest 10 day(s).
| Time | Temp. | Humidity | Pressure | Rain* | Wind** | Luminosity | Snow |
|---|---|---|---|---|---|---|---|
| 1777607364 | 16.67° C | 99% | 1014.6 hPa | 0 mm | - | 0 W/m² | - |
| 1777607060 | 16.67° C | 99% | 1014.1 hPa | 0 mm | - | 0 W/m² | - |
| 1777606756 | 16.67° C | 99% | 1013.7 hPa | 0 mm | - | 0 W/m² | - |
| 1777606451 | 16.67° C | 99% | 1013.8 hPa | 0 mm | - | 0 W/m² | - |
| 1777606146 | 16.67° C | 99% | 1013.9 hPa | 0 mm | - | 0 W/m² | - |
| 1777605844 | 16.67° C | 99% | 1013.9 hPa | 1.78 mm | - | 0 W/m² | - |
| 1777605543 | 16.67° C | 99% | 1014.2 hPa | 1.78 mm | - | 0 W/m² | - |
| 1777605238 | 16.67° C | 99% | 1014.3 hPa | 0 mm | - | 0 W/m² | - |
| 1777604930 | 16.67° C | 99% | 1014.5 hPa | 0 mm | - | 0 W/m² | - |
| 1777604327 | 16.67° C | 99% | 1015.7 hPa | 1.27 mm | - | 0 W/m² | - |
| 1777604027 | 16.67° C | 99% | 1015.9 hPa | 1.27 mm | - | 0 W/m² | - |
| 1777603725 | 16.67° C | 99% | 1016.1 hPa | 1.27 mm | - | 0 W/m² | - |
| 1777603421 | 16.67° C | 99% | 1016.1 hPa | 0 mm | - | 0 W/m² | - |
| 1777603116 | 16.67° C | 99% | 1015.9 hPa | 0 mm | - | 0 W/m² | - |
| 1777602811 | 16.67° C | 99% | 1016.1 hPa | 0 mm | - | 0 W/m² | - |
| 1777602506 | 16.67° C | 99% | 1015.8 hPa | 3.05 mm | - | 0 W/m² | - |
| 1777602203 | 16.67° C | 99% | 1015.3 hPa | 4.83 mm | - | 0 W/m² | - |
| 1777601899 | 16.67° C | 99% | 1015.5 hPa | 3.05 mm | - | 0 W/m² | - |
| 1777601594 | 16.67° C | 99% | 1015.3 hPa | 1.27 mm | - | 0 W/m² | - |
| 1777601289 | 16.67° C | 99% | 1015.4 hPa | 0 mm | - | 0 W/m² | - |
| 1777600987 | 16.67° C | 99% | 1015.2 hPa | 0 mm | - | 0 W/m² | - |
| 1777600683 | 16.67° C | 99% | 1015.1 hPa | 0 mm | - | 0 W/m² | - |
| 1777586125 | 18.89° C | 99% | 1011.9 hPa | 4.32 mm | - | 22 W/m² | - |
| 1777584914 | 18.89° C | 99% | 1012.8 hPa | 16.76 mm | - | 14 W/m² | - |
| 1777584612 | 18.89° C | 99% | 1012.6 hPa | 14.99 mm | - | 16 W/m² | - |
* Rain latest hour (hover to see other rain measurements)
** Current wind speed in m/s (hover to see current wind gust speed)